Time,TemperatureF,DewpointF,PressureIn,WindDirection,WindDirectionDegrees,WindSpeedMPH,WindSpeedGustMPH,Humidity,HourlyPrecipIn,Conditions,Clouds,dailyrainin,SolarRadiationWatts/m^2,SoftwareType,DateUTC
2013-03-14 00:00:00,27.3,14.5,30.24,WNW,288,3.8,6.9,58,0.00,CLR,,0.02,0.0,WeatherDisplay:10.37,2013-03-14 04:00:00,
2013-03-14 00:05:00,27.3,14.5,30.24,WNW,300,4.3,9.0,58,0.00,RA,,0.00,0.0,WeatherDisplay:10.37,2013-03-14 04:05:00,
2013-03-14 00:10:00,27.3,13.7,30.24,West,265,5.4,10.4,56,0.00,CLR,,0.00,0.0,WeatherDisplay:10.37,2013-03-14 04:10:00,
2013-03-14 00:15:00,27.2,14.4,30.24,WNW,287,2.4,3.5,58,0.00,CLR,,0.00,0.0,WeatherDisplay:10.37,2013-03-14 04:15:00,
2013-03-14 00:20:00,27.0,14.2,30.24,WNW,294,3.3,6.0,58,0.00,CLR,,0.00,0.0,WeatherDisplay:10.37,2013-03-14 04:20:00,
2013-03-14 00:25:00,27.0,14.2,30.24,WNW,285,3.7,5.8,58,0.00,CLR,,0.00,0.0,WeatherDisplay:10.37,2013-03-14 04:25:00,
2013-03-14 00:30:00,27.0,14.2,30.24,NNW,346,2.6,12.0,58,0.00,CLR,,0.00,0.0,WeatherDisplay:10.37,2013-03-14 04:30:00,
2013-03-14 00:35:00,26.9,14.1,30.24,West,279,4.0,5.8,58,0.00,CLR,,0.00,0.0,WeatherDisplay:10.37,2013-03-14 04:35:00,
2013-03-14 00:40:00,26.9,14.1,30.24,WNW,286,2.8,3.5,58,0.00,CLR,,0.00,0.0,WeatherDisplay:10.37,2013-03-14 04:40:00,
2013-03-14 00:45:00,26.8,14.0,30.24,West,269,4.6,10.4,58,0.00,CLR,,0.00,0.0,WeatherDisplay:10.37,2013-03-14 04:45:00,
2013-03-14 00:50:00,26.8,14.0,30.24,WNW,301,2.4,5.0,58,0.00,CLR,,0.00,0.0,WeatherDisplay:10.37,2013-03-14 04:50:00,
2013-03-14 00:55:00,26.8,14.0,30.24,WSW,249,3.0,9.0,58,0.00,CLR,,0.00,0.0,WeatherDisplay:10.37,2013-03-14 04:55:00,
2013-03-14 01:00:00,26.8,14.0,30.25,NW,306,2.7,3.5,58,0.00,CLR,,0.00,0.0,WeatherDisplay:10.37,2013-03-14 05:00:00,
2013-03-14 01:05:00,26.8,13.6,30.25,WNW,302,2.6,4.6,57,0.00,CLR,,0.00,0.0,WeatherDisplay:10.37,2013-03-14 05:05:00,
2013-03-14 01:10:00,26.7,13.9,30.25,WNW,286,2.5,4.0,58,0.00,CLR,,0.00,0.0,WeatherDisplay:10.37,2013-03-14 05:10:00,
2013-03-14 01:15:00,26.6,13.8,30.25,NW,325,3.8,8.1,58,0.00,CLR,,0.00,0.0,WeatherDisplay:10.37,2013-03-14 05:15:00,
2013-03-14 01:20:00,26.6,13.8,30.25,West,268,2.7,5.0,58,0.00,CLR,,0.00,0.0,WeatherDisplay:10.37,2013-03-14 05:20:00,
2013-03-14 01:25:00,26.5,13.7,30.25,WSW,257,2.8,4.6,58,0.00,CLR,,0.00,0.0,WeatherDisplay:10.37,2013-03-14 05:25:00,
2013-03-14 01:30:00,26.5,13.7,30.25,WNW,302,3.7,8.1,58,0.00,CLR,,0.00,0.0,WeatherDisplay:10.37,2013-03-14 05:30:00,
2013-03-14 01:35:00,26.6,13.8,30.25,West,280,3.4,4.6,58,0.00,CLR,,0.00,0.0,WeatherDisplay:10.37,2013-03-14 05:35:00,
2013-03-14 01:40:00,26.5,13.7,30.25,WNW,289,2.4,4.6,58,0.00,CLR,,0.00,0.0,WeatherDisplay:10.37,2013-03-14 05:40:00,
2013-03-14 01:45:00,26.4,14.0,30.25,West,269,3.4,5.8,59,0.00,CLR,,0.00,0.0,WeatherDisplay:10.37,2013-03-14 05:45:00,
2013-03-14 01:50:00,26.2,13.8,30.25,WNW,291,2.5,3.5,59,0.00,CLR,,0.00,0.0,WeatherDisplay:10.37,2013-03-14 05:50:00,
2013-03-14 01:55:00,26.1,14.1,30.26,West,269,2.2,3.5,60,0.00,CLR,,0.00,0.0,WeatherDisplay:10.37,2013-03-14 05:55:00,
2013-03-14 02:00:00,26.1,14.1,30.26,WNW,292,1.6,2.3,60,0.00,CLR,,0.00,0.0,WeatherDisplay:10.37,2013-03-14 06:00:00,
2013-03-14 02:06:00,26.1,14.1,30.26,West,280,1.9,6.9,60,0.00,CLR,,0.00,0.0,WeatherDisplay:10.37,2013-03-14 06:06:00,
2013-03-14 02:11:00,25.9,14.3,30.26,WNW,290,1.0,3.5,61,0.00,CLR,,0.00,0.0,WeatherDisplay:10.37,2013-03-14 06:11:00,
2013-03-14 02:16:00,25.8,14.6,30.26,WNW,298,1.2,2.3,62,0.00,CLR,,0.00,0.0,WeatherDisplay:10.37,2013-03-14 06:16:00,
2013-03-14 02:21:00,25.7,14.5,30.26,West,259,1.2,3.5,62,0.00,CLR,,0.00,0.0,WeatherDisplay:10.37,2013-03-14 06:21:00,
2013-03-14 02:26:00,25.6,14.4,30.26,West,281,1.7,3.5,62,0.00,CLR,,0.00,0.0,WeatherDisplay:10.37,2013-03-14 06:26:00,
2013-03-14 02:31:00,25.4,14.5,30.26,West,271,2.6,4.6,63,0.00,CLR,,0.00,0.0,WeatherDisplay:10.37,2013-03-14 06:31:00,
2013-03-14 02:36:00,25.4,14.5,30.26,WNW,292,1.0,3.5,63,0.00,CLR,,0.00,0.0,WeatherDisplay:10.37,2013-03-14 06:36:00,
2013-03-14 02:41:00,25.3,14.5,30.26,WNW,296,2.1,3.5,63,0.00,CLR,,0.00,0.0,WeatherDisplay:10.37,2013-03-14 06:41:00,
2013-03-14 02:46:00,25.2,14.7,30.26,West,262,1.7,3.5,64,0.00,CLR,,0.00,0.0,WeatherDisplay:10.37,2013-03-14 06:46:00,
2013-03-14 02:51:00,25.1,15.0,30.26,West,262,0.4,1.1,65,0.00,CLR,,0.00,0.0,WeatherDisplay:10.37,2013-03-14 06:51:00,
2013-03-14 02:56:00,25.0,14.9,30.27,WSW,254,1.8,4.6,65,0.00,CLR,,0.00,0.0,WeatherDisplay:10.37,2013-03-14 06:56:00,
2013-03-14 03:01:00,24.9,15.1,30.27,West,270,1.1,2.3,66,0.00,CLR,,0.00,0.0,WeatherDisplay:10.37,2013-03-14 07:01:00,
2013-03-14 03:06:00,24.9,15.1,30.27,West,273,1.1,2.3,66,0.00,CLR,,0.00,0.0,WeatherDisplay:10.37,2013-03-14 07:06:00,
2013-03-14 03:11:00,24.8,15.4,30.27,West,270,3.2,5.8,67,0.00,CLR,,0.00,0.0,WeatherDisplay:10.37,2013-03-14 07:11:00,
2013-03-14 03:16:00,24.7,15.3,30.27,WSW,253,0.9,2.3,67,0.00,CLR,,0.00,0.0,WeatherDisplay:10.37,2013-03-14 07:16:00,
2013-03-14 03:21:00,24.7,15.6,30.27,WSW,251,2.9,4.6,68,0.00,CLR,,0.00,0.0,WeatherDisplay:10.37,2013-03-14 07:21:00,
2013-03-14 03:26:00,24.6,15.5,30.27,West,260,3.8,8.1,68,0.00,CLR,,0.00,0.0,WeatherDisplay:10.37,2013-03-14 07:26:00,
2013-03-14 03:31:00,24.6,15.5,30.27,West,261,0.7,2.3,68,0.00,CLR,,0.00,0.0,WeatherDisplay:10.37,2013-03-14 07:31:00,
2013-03-14 03:36:00,24.5,15.8,30.27,West,271,0.7,1.1,69,0.00,CLR,,0.00,0.0,WeatherDisplay:10.37,2013-03-14 07:36:00,
2013-03-14 03:41:00,24.4,15.7,30.27,West,270,2.6,4.0,69,0.00,CLR,,0.00,0.0,WeatherDisplay:10.37,2013-03-14 07:41:00,
2013-03-14 03:46:00,24.6,16.2,30.27,West,265,3.1,6.9,70,0.00,CLR,,0.00,0.0,WeatherDisplay:10.37,2013-03-14 07:46:00,
2013-03-14 03:51:00,24.7,16.0,30.27,West,263,2.8,3.5,69,0.00,CLR,,0.00,0.0,WeatherDisplay:10.37,2013-03-14 07:51:00,
2013-03-14 03:56:00,24.7,16.3,30.27,West,271,2.3,6.9,70,0.00,CLR,,0.00,0.0,WeatherDisplay:10.37,2013-03-14 07:56:00,
2013-03-14 04:01:00,24.7,16.3,30.27,West,267,0.8,2.3,70,0.00,CLR,,0.00,0.0,WeatherDisplay:10.37,2013-03-14 08:01:00,
2013-03-14 04:06:00,24.7,16.3,30.27,WSW,252,3.3,4.6,70,0.00,CLR,,0.00,0.0,WeatherDisplay:10.37,2013-03-14 08:06:00,
2013-03-14 04:11:00,24.8,16.4,30.27,West,269,2.2,4.6,70,0.00,CLR,,0.00,0.0,WeatherDisplay:10.37,2013-03-14 08:11:00,
2013-03-14 04:16:00,24.8,16.7,30.27,West,272,2.4,4.6,71,0.00,CLR,,0.00,0.0,WeatherDisplay:10.37,2013-03-14 08:16:00,
2013-03-14 04:21:00,24.7,16.6,30.27,West,270,0.2,1.1,71,0.00,CLR,,0.00,0.0,WeatherDisplay:10.37,2013-03-14 08:21:00,
2013-03-14 04:26:00,24.5,16.4,30.27,West,277,1.2,3.5,71,0.00,CLR,,0.00,0.0,WeatherDisplay:10.37,2013-03-14 08:26:00,
2013-03-14 04:31:00,24.4,16.3,30.27,West,281,1.9,3.5,71,0.00,CLR,,0.00,0.0,WeatherDisplay:10.37,2013-03-14 08:31:00,
2013-03-14 04:36:00,24.3,16.6,30.27,WNW,286,0.4,3.5,72,0.00,CLR,,0.00,0.0,WeatherDisplay:10.37,2013-03-14 08:36:00,
2013-03-14 04:41:00,24.1,16.7,30.27,West,279,1.2,2.3,73,0.00,CLR,,0.00,0.0,WeatherDisplay:10.37,2013-03-14 08:41:00,
2013-03-14 04:46:00,23.9,16.5,30.27,WNW,290,0.9,1.1,73,0.00,CLR,,0.00,0.0,WeatherDisplay:10.37,2013-03-14 08:46:00,
2013-03-14 04:51:00,23.8,16.4,30.27,WSW,252,0.8,2.3,73,0.00,CLR,,0.00,0.0,WeatherDisplay:10.37,2013-03-14 08:51:00,
2013-03-14 04:57:00,23.8,16.7,30.26,West,273,1.8,3.5,74,0.00,CLR,,0.00,0.0,WeatherDisplay:10.37,2013-03-14 08:57:00,
2013-03-14 05:02:00,23.7,16.6,30.26,West,271,1.7,3.5,74,0.00,CLR,,0.00,0.0,WeatherDisplay:10.37,2013-03-14 09:02:00,
2013-03-14 05:07:00,23.6,16.5,30.26,West,271,0.9,2.3,74,0.00,CLR,,0.00,0.0,WeatherDisplay:10.37,2013-03-14 09:07:00,
2013-03-14 05:12:00,23.5,16.7,30.26,West,266,0.7,3.5,75,0.00,CLR,,0.00,0.0,WeatherDisplay:10.37,2013-03-14 09:12:00,
2013-03-14 05:17:00,23.4,16.6,30.26,West,266,1.1,2.3,75,0.00,CLR,,0.00,0.0,WeatherDisplay:10.37,2013-03-14 09:17:00,
2013-03-14 05:22:00,23.2,16.8,30.26,West,266,0.2,1.1,76,0.00,CLR,,0.00,0.0,WeatherDisplay:10.37,2013-03-14 09:22:00,
2013-03-14 05:27:00,23.0,16.6,30.26,West,266,1.6,1.6,76,0.00,CLR,,0.00,0.0,WeatherDisplay:10.37,2013-03-14 09:27:00,
2013-03-14 05:32:00,22.8,16.7,30.27,West,266,0.5,2.3,77,0.00,CLR,,0.00,0.0,WeatherDisplay:10.37,2013-03-14 09:32:00,
2013-03-14 05:37:00,22.6,16.5,30.27,West,266,0.5,1.1,77,0.00,CLR,,0.00,0.0,WeatherDisplay:10.37,2013-03-14 09:37:00,
2013-03-14 05:42:00,22.4,16.3,30.27,West,266,0.3,2.3,77,0.00,CLR,,0.00,0.0,WeatherDisplay:10.37,2013-03-14 09:42:00,
2013-03-14 05:47:00,22.2,16.4,30.27,West,266,0.0,1.1,78,0.00,CLR,,0.00,0.0,WeatherDisplay:10.37,2013-03-14 09:47:00,
2013-03-14 05:52:00,22.1,16.3,30.27,West,266,0.3,1.1,78,0.00,CLR,,0.00,0.0,WeatherDisplay:10.37,2013-03-14 09:52:00,
2013-03-14 05:57:00,22.0,16.5,30.27,West,261,1.4,3.0,79,0.00,CLR,,0.00,0.0,WeatherDisplay:10.37,2013-03-14 09:57:00,
2013-03-14 06:02:00,21.9,16.4,30.27,West,262,1.2,3.5,79,0.00,CLR,,0.00,0.0,WeatherDisplay:10.37,2013-03-14 10:02:00,
2013-03-14 06:07:00,22.1,16.9,30.28,West,266,1.7,3.5,80,0.00,CLR,,0.00,0.0,WeatherDisplay:10.37,2013-03-14 10:07:00,
2013-03-14 06:12:00,22.3,16.8,30.27,West,281,1.5,2.3,79,0.00,CLR,,0.00,0.0,WeatherDisplay:10.37,2013-03-14 10:12:00,
2013-03-14 06:17:00,22.5,17.0,30.27,WNW,286,1.8,3.5,79,0.00,CLR,,0.00,0.0,WeatherDisplay:10.37,2013-03-14 10:17:00,
2013-03-14 06:22:00,22.9,17.1,30.27,West,279,1.4,2.3,78,0.00,CLR,,0.00,0.0,WeatherDisplay:10.37,2013-03-14 10:22:00,
2013-03-14 06:27:00,23.0,17.2,30.27,WNW,298,0.4,1.1,78,0.00,CLR,,0.00,0.0,WeatherDisplay:10.37,2013-03-14 10:27:00,
2013-03-14 06:32:00,23.0,17.2,30.28,West,281,0.6,2.3,78,0.00,CLR,,0.00,0.0,WeatherDisplay:10.37,2013-03-14 10:32:00,
2013-03-14 06:37:00,23.0,17.2,30.27,WNW,286,1.7,3.5,78,0.00,CLR,,0.00,0.0,WeatherDisplay:10.37,2013-03-14 10:37:00,
2013-03-14 06:42:00,23.0,17.2,30.27,WNW,286,0.7,2.3,78,0.00,CLR,,0.00,0.0,WeatherDisplay:10.37,2013-03-14 10:42:00,
2013-03-14 06:47:00,22.9,16.8,30.27,WNW,284,0.0,1.1,77,0.00,CLR,,0.00,0.0,WeatherDisplay:10.37,2013-03-14 10:47:00,
2013-03-14 06:52:00,22.8,17.0,30.27,WNW,284,1.0,2.3,78,0.00,CLR,,0.00,0.0,WeatherDisplay:10.37,2013-03-14 10:52:00,
2013-03-14 06:57:00,22.7,16.9,30.28,WNW,286,0.6,2.0,78,0.00,CLR,,0.00,0.0,WeatherDisplay:10.37,2013-03-14 10:57:00,
2013-03-14 07:02:00,22.5,16.7,30.28,West,279,0.9,2.3,78,0.00,CLR,,0.00,0.0,WeatherDisplay:10.37,2013-03-14 11:02:00,
2013-03-14 07:07:00,22.3,16.8,30.28,West,271,1.3,3.5,79,0.00,CLR,,0.00,0.0,WeatherDisplay:10.37,2013-03-14 11:07:00,
2013-03-14 07:12:00,22.2,16.7,30.28,West,271,0.8,1.1,79,0.00,CLR,,0.00,0.0,WeatherDisplay:10.37,2013-03-14 11:12:00,
2013-03-14 07:17:00,22.0,16.8,30.28,West,271,1.6,3.5,80,0.00,CLR,,0.00,0.0,WeatherDisplay:10.37,2013-03-14 11:17:00,
2013-03-14 07:22:00,21.8,16.6,30.28,West,269,2.4,3.5,80,0.00,CLR,,0.00,0.0,WeatherDisplay:10.37,2013-03-14 11:22:00,
2013-03-14 07:27:00,21.8,16.6,30.28,WSW,257,2.5,3.5,80,0.00,CLR,,0.00,0.0,WeatherDisplay:10.37,2013-03-14 11:27:00,
2013-03-14 07:32:00,21.8,16.6,30.28,WSW,256,1.2,2.3,80,0.00,CLR,,0.00,0.0,WeatherDisplay:10.37,2013-03-14 11:32:00,
2013-03-14 07:37:00,21.8,16.6,30.28,WSW,256,2.5,4.6,80,0.00,CLR,,0.00,0.0,WeatherDisplay:10.37,2013-03-14 11:37:00,
2013-03-14 07:42:00,21.7,16.8,30.29,West,268,2.0,3.5,81,0.00,CLR,,0.00,0.0,WeatherDisplay:10.37,2013-03-14 11:42:00,
2013-03-14 07:47:00,21.8,16.9,30.29,West,269,3.1,4.0,81,0.00,CLR,,0.00,5.0,WeatherDisplay:10.37,2013-03-14 11:47:00,
2013-03-14 07:53:00,21.9,17.0,30.29,West,261,2.0,3.5,81,0.00,CLR,,0.00,9.0,WeatherDisplay:10.37,2013-03-14 11:53:00,
2013-03-14 07:58:00,21.8,16.9,30.29,WSW,252,3.0,4.6,81,0.00,CLR,,0.00,12.0,WeatherDisplay:10.37,2013-03-14 11:58:00,
2013-03-14 08:03:00,22.0,17.1,30.29,West,265,2.6,3.5,81,0.00,CLR,,0.00,14.0,WeatherDisplay:10.37,2013-03-14 12:03:00,
2013-03-14 08:08:00,22.2,17.3,30.29,WSW,258,2.0,3.5,81,0.00,CLR,,0.00,18.0,WeatherDisplay:10.37,2013-03-14 12:08:00,
2013-03-14 08:13:00,22.2,17.3,30.29,WSW,252,1.8,3.5,81,0.00,CLR,,0.00,21.0,WeatherDisplay:10.37,2013-03-14 12:13:00,
2013-03-14 08:18:00,22.2,17.5,30.29,West,266,1.3,3.5,82,0.00,CLR,,0.00,25.0,WeatherDisplay:10.37,2013-03-14 12:18:00,
2013-03-14 08:23:00,22.2,17.5,30.30,WNW,284,2.6,3.5,82,0.00,CLR,,0.00,40.0,WeatherDisplay:10.37,2013-03-14 12:23:00,
2013-03-14 08:28:00,22.5,17.5,30.30,West,265,2.8,3.5,81,0.00,CLR,,0.00,46.0,WeatherDisplay:10.37,2013-03-14 12:28:00,
2013-03-14 08:33:00,22.9,17.7,30.30,WSW,251,2.4,3.5,80,0.00,CLR,,0.00,56.0,WeatherDisplay:10.37,2013-03-14 12:33:00,
2013-03-14 08:38:00,23.3,17.7,30.30,West,269,2.1,5.8,79,0.00,CLR,,0.00,79.0,WeatherDisplay:10.37,2013-03-14 12:38:00,
2013-03-14 08:43:00,23.7,17.8,30.30,West,261,2.9,4.6,78,0.00,CLR,,0.00,95.0,WeatherDisplay:10.37,2013-03-14 12:43:00,
2013-03-14 08:48:00,24.0,18.1,30.30,West,264,3.5,4.6,78,0.00,CLR,,0.00,72.0,WeatherDisplay:10.37,2013-03-14 12:48:00,
2013-03-14 08:53:00,24.3,18.1,30.30,WSW,252,2.5,3.5,77,0.00,CLR,,0.00,105.0,WeatherDisplay:10.37,2013-03-14 12:53:00,
2013-03-14 08:58:00,24.6,18.4,30.30,West,278,2.9,3.5,77,0.00,CLR,,0.00,91.0,WeatherDisplay:10.37,2013-03-14 12:58:00,
2013-03-14 09:03:00,25.0,18.5,30.30,WSW,256,2.2,6.0,76,0.00,FEW,,0.00,104.0,WeatherDisplay:10.37,2013-03-14 13:03:00,
2013-03-14 09:08:00,25.4,18.6,30.31,West,268,1.9,3.5,75,0.00,FEW,,0.00,114.0,WeatherDisplay:10.37,2013-03-14 13:08:00,
2013-03-14 09:13:00,25.8,18.7,30.30,NW,310,1.4,3.5,74,0.00,FEW,,0.00,127.0,WeatherDisplay:10.37,2013-03-14 13:13:00,
2013-03-14 09:18:00,26.1,18.9,30.31,West,272,2.7,3.5,74,0.00,FEW,,0.00,142.0,WeatherDisplay:10.37,2013-03-14 13:18:00,
2013-03-14 09:23:00,26.4,18.9,30.30,West,279,1.9,3.5,73,0.00,FEW,,0.00,169.0,WeatherDisplay:10.37,2013-03-14 13:23:00,
2013-03-14 09:28:00,26.8,19.0,30.31,West,277,2.1,5.8,72,0.00,FEW,,0.00,165.0,WeatherDisplay:10.37,2013-03-14 13:28:00,
2013-03-14 09:33:00,27.0,18.8,30.31,West,259,2.5,6.0,71,0.00,FEW,,0.00,197.0,WeatherDisplay:10.37,2013-03-14 13:33:00,
2013-03-14 09:38:00,27.2,19.0,30.31,WSW,246,5.6,8.1,71,0.00,FEW,,0.00,178.0,WeatherDisplay:10.37,2013-03-14 13:38:00,
2013-03-14 09:43:00,27.3,19.1,30.31,West,281,2.3,3.5,71,0.00,FEW,,0.00,49.0,WeatherDisplay:10.37,2013-03-14 13:43:00,
2013-03-14 09:48:00,27.5,19.0,30.31,NW,317,1.8,3.5,70,0.00,FEW,,0.00,251.0,WeatherDisplay:10.37,2013-03-14 13:48:00,
2013-03-14 09:53:00,27.9,19.0,30.31,West,268,2.9,3.5,69,0.00,FEW,,0.00,253.0,WeatherDisplay:10.37,2013-03-14 13:53:00,
2013-03-14 09:58:00,28.1,19.6,30.31,WSW,254,2.9,3.5,70,0.00,FEW,,0.00,216.0,WeatherDisplay:10.37,2013-03-14 13:58:00,
2013-03-14 10:03:00,28.4,19.2,30.31,West,280,1.2,3.5,68,0.00,FEW,,0.00,135.0,WeatherDisplay:10.37,2013-03-14 14:03:00,
2013-03-14 10:08:00,28.9,19.7,30.32,West,279,2.2,3.5,68,0.00,FEW,,0.00,244.0,WeatherDisplay:10.37,2013-03-14 14:08:00,
2013-03-14 10:13:00,29.1,19.2,30.31,West,273,2.1,3.5,66,0.00,CLR,,0.00,155.0,WeatherDisplay:10.37,2013-03-14 14:13:00,
2013-03-14 10:18:00,29.3,19.0,30.31,West,281,2.6,3.5,65,0.00,CLR,,0.00,278.0,WeatherDisplay:10.37,2013-03-14 14:18:00,
2013-03-14 10:23:00,29.6,18.9,30.31,NW,311,1.8,4.6,64,0.00,CLR,,0.00,156.0,WeatherDisplay:10.37,2013-03-14 14:23:00,
2013-03-14 10:28:00,29.8,19.1,30.31,West,271,2.9,6.9,64,0.00,CLR,,0.00,220.0,WeatherDisplay:10.37,2013-03-14 14:28:00,
2013-03-14 10:33:00,29.9,18.8,30.31,West,278,2.5,4.6,63,0.00,CLR,,0.00,367.0,WeatherDisplay:10.37,2013-03-14 14:33:00,
2013-03-14 10:38:00,30.3,19.6,30.31,North,350,2.1,4.6,64,0.00,CLR,,0.00,283.0,WeatherDisplay:10.37,2013-03-14 14:38:00,
2013-03-14 10:43:00,30.4,19.3,30.31,NW,321,2.7,3.5,63,0.00,CLR,,0.00,156.0,WeatherDisplay:10.37,2013-03-14 14:43:00,
2013-03-14 10:48:00,30.5,19.4,30.31,WNW,290,3.1,4.6,63,0.00,CLR,,0.00,285.0,WeatherDisplay:10.37,2013-03-14 14:48:00,
2013-03-14 10:53:00,30.6,18.7,30.31,West,269,3.8,5.8,61,0.00,CLR,,0.00,160.0,WeatherDisplay:10.37,2013-03-14 14:53:00,
2013-03-14 10:58:00,30.8,18.9,30.31,West,280,2.8,4.6,61,0.00,CLR,,0.00,107.0,WeatherDisplay:10.37,2013-03-14 14:58:00,
2013-03-14 11:03:00,31.1,19.2,30.31,WNW,285,2.5,4.6,61,0.00,CLR,,0.00,67.0,WeatherDisplay:10.37,2013-03-14 15:03:00,
2013-03-14 11:08:00,31.5,19.6,30.31,West,268,2.1,3.5,61,0.00,CLR,,0.00,163.0,WeatherDisplay:10.37,2013-03-14 15:08:00,
2013-03-14 11:13:00,31.8,19.5,30.31,NW,309,2.7,5.8,60,0.00,SCT,,0.00,202.0,WeatherDisplay:10.37,2013-03-14 15:13:00,
2013-03-14 11:18:00,32.1,20.2,30.31,West,275,4.5,11.5,61,0.00,SCT,,0.00,294.0,WeatherDisplay:10.37,2013-03-14 15:18:00,
2013-03-14 11:23:00,32.1,19.8,30.31,West,276,2.8,5.8,60,0.00,SCT,,0.00,267.0,WeatherDisplay:10.37,2013-03-14 15:23:00,
2013-03-14 11:28:00,32.5,20.1,30.31,West,274,3.3,6.9,60,0.00,SCT,,0.00,234.0,WeatherDisplay:10.37,2013-03-14 15:28:00,
2013-03-14 11:33:00,32.8,20.0,30.30,WSW,258,3.3,9.2,59,0.00,SCT,,0.00,281.0,WeatherDisplay:10.37,2013-03-14 15:33:00,
2013-03-14 11:38:00,33.0,20.2,30.30,West,273,3.3,5.8,59,0.00,SCT,,0.00,204.0,WeatherDisplay:10.37,2013-03-14 15:38:00,
2013-03-14 11:43:00,32.9,20.1,30.30,WNW,287,3.8,5.8,59,0.00,SCT,,0.00,338.0,WeatherDisplay:10.37,2013-03-14 15:43:00,
2013-03-14 11:48:00,33.4,20.2,30.30,WNW,294,6.6,11.5,58,0.00,SCT,,0.00,485.0,WeatherDisplay:10.37,2013-03-14 15:48:00,
2013-03-14 11:54:00,33.5,21.1,30.30,WSW,254,5.2,8.1,60,0.00,SCT,,0.00,404.0,WeatherDisplay:10.37,2013-03-14 15:54:00,
2013-03-14 11:59:00,33.8,21.0,30.30,West,268,5.4,8.1,59,0.00,SCT,,0.00,345.0,WeatherDisplay:10.37,2013-03-14 15:59:00,
2013-03-14 12:04:00,34.2,20.5,30.30,NW,306,3.5,6.0,57,0.00,SCT,,0.00,622.0,WeatherDisplay:10.37,2013-03-14 16:04:00,
2013-03-14 12:09:00,34.3,20.6,30.29,West,267,3.1,4.6,57,0.00,SCT,,0.00,670.0,WeatherDisplay:10.37,2013-03-14 16:09:00,
2013-03-14 12:14:00,34.6,20.5,30.29,WNW,284,2.6,8.1,56,0.00,SCT,,0.00,677.0,WeatherDisplay:10.37,2013-03-14 16:14:00,
2013-03-14 12:19:00,35.0,20.9,30.29,WNW,282,3.3,5.8,56,0.00,SCT,,0.00,689.0,WeatherDisplay:10.37,2013-03-14 16:19:00,
2013-03-14 12:24:00,35.0,21.3,30.29,West,278,3.6,6.9,57,0.00,SCT,,0.00,691.0,WeatherDisplay:10.37,2013-03-14 16:24:00,
2013-03-14 12:29:00,35.3,21.6,30.29,WNW,286,1.8,4.0,57,0.00,SCT,,0.00,703.0,WeatherDisplay:10.37,2013-03-14 16:29:00,
2013-03-14 12:34:00,35.3,20.3,30.29,West,277,2.3,5.8,54,0.00,SCT,,0.00,710.0,WeatherDisplay:10.37,2013-03-14 16:34:00,
2013-03-14 12:39:00,35.5,20.5,30.28,WSW,257,8.0,11.5,54,0.00,SCT,,0.00,715.0,WeatherDisplay:10.37,2013-03-14 16:39:00,
2013-03-14 12:44:00,35.4,20.8,30.28,North,5,4.0,6.9,55,0.00,SCT,,0.00,721.0,WeatherDisplay:10.37,2013-03-14 16:44:00,
2013-03-14 12:49:00,35.5,20.5,30.28,West,275,9.0,12.7,54,0.00,SCT,,0.00,726.0,WeatherDisplay:10.37,2013-03-14 16:49:00,
2013-03-14 12:54:00,35.3,21.2,30.28,West,268,6.0,9.2,56,0.00,SCT,,0.00,677.0,WeatherDisplay:10.37,2013-03-14 16:54:00,
2013-03-14 12:59:00,35.3,22.0,30.28,West,281,3.8,6.9,58,0.00,SCT,,0.00,735.0,WeatherDisplay:10.37,2013-03-14 16:59:00,
2013-03-14 13:04:00,36.0,21.4,30.28,West,263,3.3,5.0,55,0.00,SCT,,0.00,740.0,WeatherDisplay:10.37,2013-03-14 17:04:00,
2013-03-14 13:09:00,36.6,21.9,30.28,WSW,251,6.9,11.5,55,0.00,SCT,,0.00,745.0,WeatherDisplay:10.37,2013-03-14 17:09:00,
2013-03-14 13:14:00,36.6,20.6,30.28,West,275,7.2,10.0,52,0.00,FEW,,0.00,747.0,WeatherDisplay:10.37,2013-03-14 17:14:00,
2013-03-14 13:19:00,36.5,21.4,30.28,West,262,3.2,9.0,54,0.00,FEW,,0.00,754.0,WeatherDisplay:10.37,2013-03-14 17:19:00,
2013-03-14 13:24:00,36.8,22.6,30.28,West,281,4.2,6.9,56,0.00,FEW,,0.00,754.0,WeatherDisplay:10.37,2013-03-14 17:24:00,
2013-03-14 13:29:00,37.2,22.5,30.28,WSW,253,3.9,8.1,55,0.00,FEW,,0.00,754.0,WeatherDisplay:10.37,2013-03-14 17:29:00,
2013-03-14 13:34:00,37.2,22.9,30.28,West,272,5.0,6.0,56,0.00,FEW,,0.00,761.0,WeatherDisplay:10.37,2013-03-14 17:34:00,
2013-03-14 13:39:00,37.4,21.8,30.27,WSW,256,7.8,11.5,53,0.00,FEW,,0.00,763.0,WeatherDisplay:10.37,2013-03-14 17:39:00,
2013-03-14 13:44:00,37.5,21.5,30.27,NW,305,2.3,4.6,52,0.00,FEW,,0.00,765.0,WeatherDisplay:10.37,2013-03-14 17:44:00,
2013-03-14 13:49:00,38.0,22.4,30.27,WSW,248,3.8,9.2,53,0.00,FEW,,0.00,766.0,WeatherDisplay:10.37,2013-03-14 17:49:00,
2013-03-14 13:54:00,38.2,21.6,30.27,West,265,3.0,8.0,51,0.00,FEW,,0.00,765.0,WeatherDisplay:10.37,2013-03-14 17:54:00,
2013-03-14 13:59:00,38.2,21.6,30.26,North,5,4.4,8.1,51,0.00,FEW,,0.00,765.0,WeatherDisplay:10.37,2013-03-14 17:59:00,
2013-03-14 14:04:00,38.4,22.3,30.26,NNW,345,2.0,4.6,52,0.00,FEW,,0.00,761.0,WeatherDisplay:10.37,2013-03-14 18:04:00,
2013-03-14 14:09:00,38.4,21.4,30.26,West,267,4.5,6.9,50,0.00,FEW,,0.00,763.0,WeatherDisplay:10.37,2013-03-14 18:09:00,
2013-03-14 14:14:00,38.0,22.4,30.25,NNW,335,2.0,3.5,53,0.00,SCT,,0.00,770.0,WeatherDisplay:10.37,2013-03-14 18:14:00,
2013-03-14 14:19:00,38.4,23.2,30.25,West,276,5.1,6.9,54,0.00,SCT,,0.00,758.0,WeatherDisplay:10.37,2013-03-14 18:19:00,
2013-03-14 14:24:00,38.3,21.7,30.25,WSW,258,4.0,8.1,51,0.00,SCT,,0.00,174.0,WeatherDisplay:10.37,2013-03-14 18:24:00,
2013-03-14 14:29:00,38.2,21.6,30.25,West,264,6.7,10.4,51,0.00,SCT,,0.00,766.0,WeatherDisplay:10.37,2013-03-14 18:29:00,
2013-03-14 14:34:00,38.8,22.7,30.25,West,273,2.4,4.6,52,0.00,SCT,,0.00,745.0,WeatherDisplay:10.37,2013-03-14 18:34:00,
2013-03-14 14:39:00,38.7,21.6,30.24,WNW,290,5.8,10.4,50,0.00,SCT,,0.00,763.0,WeatherDisplay:10.37,2013-03-14 18:39:00,
2013-03-14 14:44:00,39.2,21.6,30.24,West,266,4.6,9.0,49,0.00,SCT,,0.00,744.0,WeatherDisplay:10.37,2013-03-14 18:44:00,
2013-03-14 14:49:00,39.1,22.9,30.24,West,259,4.7,8.1,52,0.00,SCT,,0.00,745.0,WeatherDisplay:10.37,2013-03-14 18:49:00,
2013-03-14 14:54:00,38.8,21.7,30.24,West,270,4.0,6.0,50,0.00,SCT,,0.00,726.0,WeatherDisplay:10.37,2013-03-14 18:54:00,
2013-03-14 14:59:00,39.2,21.1,30.23,West,263,6.1,9.2,48,0.00,SCT,,0.00,733.0,WeatherDisplay:10.37,2013-03-14 18:59:00,
2013-03-14 15:04:00,39.2,21.6,30.23,NNW,333,3.7,8.1,49,0.00,SCT,,0.00,731.0,WeatherDisplay:10.37,2013-03-14 19:04:00,
2013-03-14 15:09:00,39.4,20.3,30.23,West,280,5.0,10.4,46,0.00,SCT,,0.00,687.0,WeatherDisplay:10.37,2013-03-14 19:09:00,
2013-03-14 15:14:00,39.8,21.7,30.23,West,273,7.6,12.7,48,0.00,BKN,,0.00,721.0,WeatherDisplay:10.37,2013-03-14 19:14:00,
2013-03-14 15:19:00,40.2,21.6,30.23,WNW,291,4.4,8.1,47,0.00,BKN,,0.00,592.0,WeatherDisplay:10.37,2013-03-14 19:19:00,
2013-03-14 15:24:00,40.4,21.7,30.23,NNW,342,4.3,6.9,47,0.00,BKN,,0.00,675.0,WeatherDisplay:10.37,2013-03-14 19:24:00,
2013-03-14 15:29:00,40.5,21.8,30.23,NE,42,2.9,4.6,47,0.00,BKN,,0.00,679.0,WeatherDisplay:10.37,2013-03-14 19:29:00,
2013-03-14 15:34:00,41.1,21.9,30.23,WNW,302,4.5,6.9,46,0.00,BKN,,0.00,654.0,WeatherDisplay:10.37,2013-03-14 19:34:00,
2013-03-14 15:39:00,40.9,22.2,30.22,West,266,5.6,8.1,47,0.00,BKN,,0.00,643.0,WeatherDisplay:10.37,2013-03-14 19:39:00,
2013-03-14 15:44:00,41.1,22.4,30.22,WNW,290,4.6,8.1,47,0.00,BKN,,0.00,647.0,WeatherDisplay:10.37,2013-03-14 19:44:00,
2013-03-14 15:49:00,41.5,22.7,30.22,WSW,254,5.0,10.0,47,0.00,BKN,,0.00,629.0,WeatherDisplay:10.37,2013-03-14 19:49:00,
2013-03-14 15:54:00,40.5,20.3,30.22,West,268,4.6,6.9,44,0.00,BKN,,0.00,621.0,WeatherDisplay:10.37,2013-03-14 19:54:00,
2013-03-14 15:59:00,40.7,21.5,30.22,WNW,298,4.9,8.1,46,0.00,BKN,,0.00,612.0,WeatherDisplay:10.37,2013-03-14 19:59:00,
2013-03-14 16:04:00,41.4,22.7,30.22,WNW,296,4.6,9.2,47,0.00,BKN,,0.00,592.0,WeatherDisplay:10.37,2013-03-14 20:04:00,
2013-03-14 16:09:00,41.5,21.7,30.22,West,273,5.0,7.0,45,0.00,BKN,,0.00,548.0,WeatherDisplay:10.37,2013-03-14 20:09:00,
2013-03-14 16:14:00,41.0,20.7,30.22,West,271,3.7,8.0,44,0.00,BKN,,0.00,445.0,WeatherDisplay:10.37,2013-03-14 20:14:00,
2013-03-14 16:19:00,40.5,20.8,30.21,WSW,248,2.8,3.5,45,0.00,BKN,,0.00,487.0,WeatherDisplay:10.37,2013-03-14 20:19:00,
2013-03-14 16:24:00,41.0,20.7,30.22,WSW,251,9.1,12.7,44,0.00,BKN,,0.00,543.0,WeatherDisplay:10.37,2013-03-14 20:24:00,
2013-03-14 16:29:00,41.3,21.5,30.21,WSW,257,4.8,10.0,45,0.00,BKN,,0.00,476.0,WeatherDisplay:10.37,2013-03-14 20:29:00,
2013-03-14 16:34:00,41.0,21.3,30.21,WNW,301,5.3,9.2,45,0.00,BKN,,0.00,519.0,WeatherDisplay:10.37,2013-03-14 20:34:00,
2013-03-14 16:39:00,41.3,19.9,30.21,WNW,300,3.8,6.9,42,0.00,BKN,,0.00,494.0,WeatherDisplay:10.37,2013-03-14 20:39:00,
2013-03-14 16:44:00,41.5,21.2,30.21,West,278,3.9,4.6,44,0.00,BKN,,0.00,490.0,WeatherDisplay:10.37,2013-03-14 20:44:00,
2013-03-14 16:49:00,41.7,21.4,30.21,NNW,347,1.8,5.0,44,0.00,BKN,,0.00,420.0,WeatherDisplay:10.37,2013-03-14 20:49:00,
2013-03-14 16:54:00,41.9,21.0,30.21,NNW,336,3.3,5.8,43,0.00,BKN,,0.00,360.0,WeatherDisplay:10.37,2013-03-14 20:54:00,
2013-03-14 16:59:00,41.8,20.4,30.21,West,281,2.5,5.8,42,0.00,BKN,,0.00,343.0,WeatherDisplay:10.37,2013-03-14 20:59:00,
2013-03-14 17:04:00,41.4,20.5,30.20,West,262,3.1,6.9,43,0.00,SCT,,0.00,343.0,WeatherDisplay:10.37,2013-03-14 21:04:00,
2013-03-14 17:09:00,41.8,20.4,30.20,NE,41,5.6,8.1,42,0.00,SCT,,0.00,383.0,WeatherDisplay:10.37,2013-03-14 21:09:00,
2013-03-14 17:15:00,41.7,21.4,30.20,WSW,253,3.3,9.0,44,0.00,SCT,,0.00,417.0,WeatherDisplay:10.37,2013-03-14 21:15:00,
2013-03-14 17:20:00,41.3,19.9,30.20,West,279,4.0,6.9,42,0.00,SCT,,0.00,403.0,WeatherDisplay:10.37,2013-03-14 21:20:00,
2013-03-14 17:25:00,41.6,20.2,30.20,WNW,285,3.4,4.6,42,0.00,SCT,,0.00,302.0,WeatherDisplay:10.37,2013-03-14 21:25:00,
2013-03-14 17:30:00,41.8,19.8,30.20,West,266,6.2,11.0,41,0.00,SCT,,0.00,290.0,WeatherDisplay:10.37,2013-03-14 21:30:00,
2013-03-14 17:35:00,41.5,20.1,30.20,WSW,243,2.8,4.6,42,0.00,SCT,,0.00,260.0,WeatherDisplay:10.37,2013-03-14 21:35:00,
2013-03-14 17:40:00,41.5,20.6,30.20,WNW,297,3.0,4.6,43,0.00,SCT,,0.00,265.0,WeatherDisplay:10.37,2013-03-14 21:40:00,
2013-03-14 17:45:00,41.7,19.7,30.20,WSW,250,3.9,6.9,41,0.00,SCT,,0.00,234.0,WeatherDisplay:10.37,2013-03-14 21:45:00,
2013-03-14 17:50:00,41.4,19.4,30.19,SW,223,3.5,6.9,41,0.00,SCT,,0.00,281.0,WeatherDisplay:10.37,2013-03-14 21:50:00,
2013-03-14 17:55:00,41.4,20.5,30.19,WNW,289,6.2,11.5,43,0.00,SCT,,0.00,306.0,WeatherDisplay:10.37,2013-03-14 21:55:00,
2013-03-14 18:00:00,41.8,19.8,30.19,WNW,296,2.0,3.5,41,0.00,SCT,,0.00,239.0,WeatherDisplay:10.37,2013-03-14 22:00:00,
2013-03-14 18:05:00,41.8,19.8,30.19,WNW,286,2.2,5.8,41,0.00,SCT,,0.00,232.0,WeatherDisplay:10.37,2013-03-14 22:05:00,
2013-03-14 18:10:00,41.8,19.8,30.19,West,272,4.4,8.1,41,0.00,SCT,,0.00,234.0,WeatherDisplay:10.37,2013-03-14 22:10:00,
2013-03-14 18:15:00,41.8,19.2,30.19,West,269,2.4,4.6,40,0.00,SCT,,0.00,155.0,WeatherDisplay:10.37,2013-03-14 22:15:00,
2013-03-14 18:20:00,41.8,20.4,30.19,WSW,239,3.5,4.6,42,0.00,SCT,,0.00,211.0,WeatherDisplay:10.37,2013-03-14 22:20:00,
2013-03-14 18:25:00,41.9,20.4,30.19,West,260,4.0,5.0,42,0.00,SCT,,0.00,171.0,WeatherDisplay:10.37,2013-03-14 22:25:00,
2013-03-14 18:30:00,42.0,20.0,30.18,WSW,245,3.4,5.8,41,0.00,SCT,,0.00,130.0,WeatherDisplay:10.37,2013-03-14 22:30:00,
2013-03-14 18:35:00,41.5,19.5,30.18,West,276,1.8,3.5,41,0.00,SCT,,0.00,134.0,WeatherDisplay:10.37,2013-03-14 22:35:00,
2013-03-14 18:40:00,41.4,19.4,30.18,WNW,284,1.4,4.6,41,0.00,SCT,,0.00,134.0,WeatherDisplay:10.37,2013-03-14 22:40:00,
2013-03-14 18:45:00,41.5,19.5,30.18,West,265,3.6,5.0,41,0.00,SCT,,0.00,114.0,WeatherDisplay:10.37,2013-03-14 22:45:00,
2013-03-14 18:50:00,41.5,19.5,30.18,WNW,284,2.8,4.0,41,0.00,SCT,,0.00,93.0,WeatherDisplay:10.37,2013-03-14 22:50:00,
2013-03-14 18:55:00,41.4,19.4,30.18,WNW,296,1.8,3.5,41,0.00,SCT,,0.00,77.0,WeatherDisplay:10.37,2013-03-14 22:55:00,
2013-03-14 19:00:00,41.2,19.8,30.17,SW,232,3.3,4.6,42,0.00,SCT,,0.00,62.0,WeatherDisplay:10.37,2013-03-14 23:00:00,
2013-03-14 19:05:00,40.8,20.0,30.17,West,278,1.8,2.3,43,0.00,SCT,,0.00,35.0,WeatherDisplay:10.37,2013-03-14 23:05:00,
2013-03-14 19:10:00,40.8,19.5,30.17,WSW,252,1.8,3.5,42,0.00,SCT,,0.00,35.0,WeatherDisplay:10.37,2013-03-14 23:10:00,
2013-03-14 19:15:00,40.4,19.6,30.18,WSW,246,4.6,6.9,43,0.00,SCT,,0.00,28.0,WeatherDisplay:10.37,2013-03-14 23:15:00,
2013-03-14 19:20:00,39.9,20.3,30.17,West,269,1.0,2.3,45,0.00,SCT,,0.00,19.0,WeatherDisplay:10.37,2013-03-14 23:20:00,
2013-03-14 19:25:00,39.5,20.4,30.17,WSW,254,1.0,3.5,46,0.00,SCT,,0.00,14.0,WeatherDisplay:10.37,2013-03-14 23:25:00,
2013-03-14 19:30:00,38.8,19.8,30.17,WSW,246,1.5,2.3,46,0.00,SCT,,0.00,11.0,WeatherDisplay:10.37,2013-03-14 23:30:00,
2013-03-14 19:35:00,38.1,20.1,30.17,West,262,0.9,2.3,48,0.00,SCT,,0.00,7.0,WeatherDisplay:10.37,2013-03-14 23:35:00,
2013-03-14 19:40:00,37.5,20.5,30.17,West,263,2.1,2.3,50,0.00,SCT,,0.00,5.0,WeatherDisplay:10.37,2013-03-14 23:40:00,
2013-03-14 19:45:00,36.8,20.3,30.17,WSW,255,0.5,1.1,51,0.00,SCT,,0.00,0.0,WeatherDisplay:10.37,2013-03-14 23:45:00,
2013-03-14 19:50:00,36.2,20.7,30.17,WSW,255,0.5,1.1,53,0.00,SCT,,0.00,0.0,WeatherDisplay:10.37,2013-03-14 23:50:00,
2013-03-14 19:55:00,35.7,20.7,30.18,West,259,0.9,1.1,54,0.00,SCT,,0.00,0.0,WeatherDisplay:10.37,2013-03-14 23:55:00,
2013-03-14 20:00:00,35.3,20.7,30.18,West,259,0.3,1.1,55,0.00,SCT,,0.00,0.0,WeatherDisplay:10.37,2013-03-15 00:00:00,
2013-03-14 20:05:00,34.9,20.8,30.18,West,259,0.2,1.1,56,0.00,SCT,,0.00,0.0,WeatherDisplay:10.37,2013-03-15 00:05:00,
2013-03-14 20:10:00,34.4,21.1,30.18,West,267,1.0,1.1,58,0.00,SCT,,0.00,0.0,WeatherDisplay:10.37,2013-03-15 00:10:00,
2013-03-14 20:15:00,34.0,20.8,30.18,West,267,1.4,2.3,58,0.00,SCT,,0.00,0.0,WeatherDisplay:10.37,2013-03-15 00:15:00,
2013-03-14 20:20:00,33.7,21.3,30.18,West,267,1.0,1.1,60,0.00,SCT,,0.00,0.0,WeatherDisplay:10.37,2013-03-15 00:20:00,
2013-03-14 20:25:00,33.4,21.4,30.18,West,262,0.4,1.1,61,0.00,SCT,,0.00,0.0,WeatherDisplay:10.37,2013-03-15 00:25:00,
2013-03-14 20:30:00,33.1,21.5,30.18,West,259,2.9,4.6,62,0.00,SCT,,0.00,0.0,WeatherDisplay:10.37,2013-03-15 00:30:00,
2013-03-14 20:35:00,33.3,22.1,30.18,West,260,1.7,3.5,63,0.00,SCT,,0.00,0.0,WeatherDisplay:10.37,2013-03-15 00:35:00,
2013-03-14 20:40:00,33.2,22.3,30.18,WSW,245,0.8,2.3,64,0.00,SCT,,0.00,0.0,WeatherDisplay:10.37,2013-03-15 00:40:00,
2013-03-14 20:45:00,32.8,22.3,30.17,WSW,244,1.2,2.3,65,0.00,SCT,,0.00,0.0,WeatherDisplay:10.37,2013-03-15 00:45:00,
2013-03-14 20:50:00,32.5,22.0,30.17,WSW,257,2.0,3.0,65,0.00,SCT,,0.00,0.0,WeatherDisplay:10.37,2013-03-15 00:50:00,
2013-03-14 20:55:00,32.3,21.8,30.16,WSW,257,0.9,2.3,65,0.00,SCT,,0.00,0.0,WeatherDisplay:10.37,2013-03-15 00:55:00,
2013-03-14 21:00:00,32.1,21.7,30.16,WSW,257,0.3,0.0,65,0.00,SCT,,0.00,0.0,WeatherDisplay:10.37,2013-03-15 01:00:00,
2013-03-14 21:05:00,32.0,21.6,30.16,WSW,257,0.9,1.1,65,0.00,FEW,,0.00,0.0,WeatherDisplay:10.37,2013-03-15 01:05:00,
2013-03-14 21:10:00,31.6,21.5,30.16,WSW,245,1.4,1.4,66,0.00,FEW,,0.00,0.0,WeatherDisplay:10.37,2013-03-15 01:10:00,
2013-03-14 21:15:00,31.3,21.6,30.15,WSW,245,0.0,1.1,67,0.00,FEW,,0.00,0.0,WeatherDisplay:10.37,2013-03-15 01:15:00,
2013-03-14 21:20:00,31.1,21.8,30.15,WSW,245,0.5,1.1,68,0.00,FEW,,0.00,0.0,WeatherDisplay:10.37,2013-03-15 01:20:00,
2013-03-14 21:25:00,30.8,21.8,30.15,WSW,245,0.2,2.3,69,0.00,FEW,,0.00,0.0,WeatherDisplay:10.37,2013-03-15 01:25:00,
2013-03-14 21:30:00,30.6,21.6,30.15,WSW,245,0.1,1.1,69,0.00,FEW,,0.00,0.0,WeatherDisplay:10.37,2013-03-15 01:30:00,
2013-03-14 21:35:00,30.4,21.8,30.15,WSW,245,0.0,1.1,70,0.00,FEW,,0.00,0.0,WeatherDisplay:10.37,2013-03-15 01:35:00,
2013-03-14 21:40:00,30.1,21.8,30.16,WSW,245,0.4,2.0,71,0.00,FEW,,0.00,0.0,WeatherDisplay:10.37,2013-03-15 01:40:00,
2013-03-14 21:45:00,30.0,22.1,30.16,WSW,247,0.9,1.1,72,0.00,FEW,,0.00,0.0,WeatherDisplay:10.37,2013-03-15 01:45:00,
2013-03-14 21:50:00,29.9,22.3,30.16,WNW,288,0.0,3.5,73,0.00,FEW,,0.00,0.0,WeatherDisplay:10.37,2013-03-15 01:50:00,
2013-03-14 21:55:00,29.8,22.5,30.15,WNW,288,0.3,2.3,74,0.00,FEW,,0.00,0.0,WeatherDisplay:10.37,2013-03-15 01:55:00,
2013-03-14 22:00:00,29.7,22.7,30.15,West,280,0.1,2.3,75,0.00,FEW,,0.00,0.0,WeatherDisplay:10.37,2013-03-15 02:00:00,
2013-03-14 22:05:00,29.6,22.6,30.16,WSW,248,0.4,3.5,75,0.00,FEW,,0.00,0.0,WeatherDisplay:10.37,2013-03-15 02:05:00,
2013-03-14 22:10:00,29.7,22.7,30.15,WSW,248,0.4,1.1,75,0.00,FEW,,0.00,0.0,WeatherDisplay:10.37,2013-03-15 02:10:00,
2013-03-14 22:15:00,29.9,22.9,30.15,WSW,248,0.7,1.1,75,0.00,FEW,,0.00,0.0,WeatherDisplay:10.37,2013-03-15 02:15:00,
2013-03-14 22:20:00,29.8,22.5,30.15,WSW,241,0.5,2.3,74,0.00,FEW,,0.00,0.0,WeatherDisplay:10.37,2013-03-15 02:20:00,
2013-03-14 22:25:00,29.9,22.3,30.15,SW,227,0.2,1.1,73,0.00,FEW,,0.00,0.0,WeatherDisplay:10.37,2013-03-15 02:25:00,
2013-03-14 22:30:00,29.8,22.5,30.15,SW,227,1.0,2.3,74,0.00,FEW,,0.00,0.0,WeatherDisplay:10.37,2013-03-15 02:30:00,
2013-03-14 22:35:00,29.6,22.3,30.15,SW,227,0.6,1.1,74,0.00,FEW,,0.00,0.0,WeatherDisplay:10.37,2013-03-15 02:35:00,
2013-03-14 22:40:00,29.4,22.5,30.15,SW,227,0.1,1.1,75,0.00,FEW,,0.00,0.0,WeatherDisplay:10.37,2013-03-15 02:40:00,
2013-03-14 22:45:00,29.2,22.6,30.15,SW,227,0.0,1.1,76,0.00,FEW,,0.00,0.0,WeatherDisplay:10.37,2013-03-15 02:45:00,
2013-03-14 22:50:00,29.1,22.2,30.15,West,267,0.4,2.3,75,0.00,FEW,,0.00,0.0,WeatherDisplay:10.37,2013-03-15 02:50:00,
2013-03-14 22:55:00,29.2,22.6,30.15,WSW,247,1.6,2.3,76,0.00,FEW,,0.00,0.0,WeatherDisplay:10.37,2013-03-15 02:55:00,
2013-03-14 23:00:00,29.3,22.7,30.15,West,265,0.8,4.6,76,0.00,FEW,,0.00,0.0,WeatherDisplay:10.37,2013-03-15 03:00:00,
2013-03-14 23:05:00,29.5,22.9,30.15,WSW,243,1.9,2.3,76,0.00,FEW,,0.00,0.0,WeatherDisplay:10.37,2013-03-15 03:05:00,
2013-03-14 23:10:00,29.5,22.9,30.14,WSW,243,1.0,1.1,76,0.00,FEW,,0.00,0.0,WeatherDisplay:10.37,2013-03-15 03:10:00,
2013-03-14 23:15:00,29.6,23.0,30.14,SW,226,0.7,2.3,76,0.00,FEW,,0.00,0.0,WeatherDisplay:10.37,2013-03-15 03:15:00,
2013-03-14 23:20:00,29.6,23.0,30.14,WSW,248,1.5,3.5,76,0.00,FEW,,0.00,0.0,WeatherDisplay:10.37,2013-03-15 03:20:00,
2013-03-14 23:25:00,29.9,22.9,30.14,SW,233,0.2,1.1,75,0.00,FEW,,0.00,0.0,WeatherDisplay:10.37,2013-03-15 03:25:00,
2013-03-14 23:30:00,30.1,23.1,30.14,SW,236,0.3,1.1,75,0.00,FEW,,0.00,0.0,WeatherDisplay:10.37,2013-03-15 03:30:00,
2013-03-14 23:35:00,30.1,23.1,30.14,SW,236,1.3,2.3,75,0.00,FEW,,0.00,0.0,WeatherDisplay:10.37,2013-03-15 03:35:00,
2013-03-14 23:40:00,30.2,22.9,30.13,SW,234,0.6,1.1,74,0.00,FEW,,0.00,0.0,WeatherDisplay:10.37,2013-03-15 03:40:00,
2013-03-14 23:45:00,30.3,23.0,30.13,WSW,252,1.7,3.5,74,0.00,FEW,,0.00,0.0,WeatherDisplay:10.37,2013-03-15 03:45:00,
2013-03-14 23:50:00,30.2,22.9,30.13,WSW,252,0.1,1.1,74,0.00,FEW,,0.00,0.0,WeatherDisplay:10.37,2013-03-15 03:50:00,
2013-03-14 23:55:00,30.2,22.9,30.13,WSW,254,1.2,3.5,74,0.00,FEW,,0.00,0.0,WeatherDisplay:10.37,2013-03-15 03:55:00,